• In India
  • List of Countries
  • For 7 days
  • Water Temperature
  • Satellite Maps
  • Weather Map
  • Weather Widgets
  • user-avatar
    Login

    Hourly Weather El Tambo

    Today, 24 February, Saturday

    Time Temperature Precipitation Wind Pressure Humidity
    00:00 +13°C° 0.6 mm 1 mps 582 mmHg 93%
    01:00 +12°C° 0.6 mm 1 mps 582 mmHg 93%
    02:00 +12°C° 0.4 mm 1 mps 582 mmHg 92%
    03:00 +12°C° 0.4 mm 1 mps 582 mmHg 92%
    04:00 +12°C° 0.4 mm 1 mps 582 mmHg 91%
    05:00 +12°C° 0.1 mm 1 mps 582 mmHg 90%
    06:00 +12°C° 0.1 mm 1 mps 582 mmHg 89%
    07:00 +12°C° 0.1 mm 1 mps 582 mmHg 88%
    08:00 +13°C° 0.1 mm 1 mps 583 mmHg 80%
    09:00 +15°C° 0.1 mm 1 mps 584 mmHg 73%
    10:00 +18°C° 0.1 mm 1 mps 585 mmHg 66%
    11:00 +17°C° 0.3 mm 2 mps 585 mmHg 64%
    12:00 +18°C° 0.3 mm 2 mps 585 mmHg 63%
    13:00 +19°C° 0.3 mm 2 mps 585 mmHg 61%
    14:00 +18°C° 0.7 mm 2 mps 584 mmHg 65%
    15:00 +18°C° 0.7 mm 2 mps 583 mmHg 68%
    16:00 +17°C° 0.7 mm 2 mps 582 mmHg 72%
    17:00 +16°C° 0.8 mm 2 mps 582 mmHg 78%
    18:00 +15°C° 0.8 mm 1 mps 582 mmHg 84%
    19:00 +13°C° 0.8 mm 1 mps 582 mmHg 90%
    20:00 +13°C° 0.5 mm 1 mps 582 mmHg 90%
    21:00 +13°C° 0.5 mm 1 mps 582 mmHg 89%
    22:00 +12°C° 0.5 mm 1 mps 583 mmHg 89%
    23:00 +12°C° 0.1 mm 1 mps 583 mmHg 88%

    Tomorrow, 25 February, Sunday

    Time Temperature Precipitation Wind Pressure Humidity
    00:00 +12°C° 0.1 mm 1 mps 582 mmHg 87%
    01:00 +12°C° 0.1 mm 1 mps 582 mmHg 86%
    02:00 +12°C° 0 mm 1 mps 582 mmHg 86%
    03:00 +11°C° 0 mm 1 mps 582 mmHg 85%
    04:00 +11°C° 0 mm 1 mps 581 mmHg 85%
    05:00 +11°C° 0 mm 1 mps 582 mmHg 84%
    06:00 +11°C° 0 mm 1 mps 582 mmHg 84%
    07:00 +11°C° 0 mm 1 mps 582 mmHg 83%
    08:00 +14°C° 0 mm 1 mps 584 mmHg 74%
    09:00 +16°C° 0 mm 1 mps 585 mmHg 64%
    10:00 +20°C° 0 mm 1 mps 586 mmHg 55%
    11:00 +19°C° 0.2 mm 2 mps 586 mmHg 57%
    12:00 +19°C° 0.2 mm 2 mps 585 mmHg 59%
    13:00 +19°C° 0.2 mm 2 mps 585 mmHg 61%
    14:00 +18°C° 0.6 mm 2 mps 584 mmHg 65%
    15:00 +18°C° 0.6 mm 2 mps 583 mmHg 69%
    16:00 +17°C° 0.6 mm 2 mps 582 mmHg 74%
    17:00 +16°C° 1 mm 2 mps 582 mmHg 80%
    18:00 +15°C° 1 mm 1 mps 582 mmHg 86%
    19:00 +13°C° 1 mm 1 mps 582 mmHg 92%
    20:00 +13°C° 0.5 mm 1 mps 582 mmHg 92%
    21:00 +13°C° 0.5 mm 1 mps 583 mmHg 93%
    22:00 +12°C° 0.5 mm 1 mps 583 mmHg 93%
    23:00 +12°C° 0.1 mm 1 mps 583 mmHg 92%

    Day after tomorrow, 26 February, Monday

    Time Temperature Precipitation Wind Pressure Humidity
    00:00 +12°C° 0.1 mm 1 mps 583 mmHg 91%
    01:00 +11°C° 0.1 mm 1 mps 582 mmHg 90%
    02:00 +11°C° 0 mm 1 mps 582 mmHg 89%
    03:00 +11°C° 0 mm 1 mps 582 mmHg 88%
    04:00 +11°C° 0 mm 1 mps 581 mmHg 88%
    05:00 +11°C° 0 mm 1 mps 582 mmHg 87%
    06:00 +11°C° 0 mm 1 mps 582 mmHg 86%
    07:00 +11°C° 0 mm 1 mps 582 mmHg 85%
    08:00 +14°C° 0 mm 1 mps 584 mmHg 73%
    09:00 +16°C° 0 mm 1 mps 585 mmHg 61%
    10:00 +20°C° 0 mm 1 mps 587 mmHg 50%
    11:00 +19°C° 0.1 mm 2 mps 586 mmHg 50%
    12:00 +20°C° 0.1 mm 2 mps 586 mmHg 51%
    13:00 +20°C° 0.1 mm 2 mps 585 mmHg 51%
    14:00 +19°C° 0.3 mm 2 mps 584 mmHg 55%
    15:00 +19°C° 0.3 mm 2 mps 584 mmHg 59%
    16:00 +18°C° 0.3 mm 2 mps 583 mmHg 64%
    17:00 +16°C° 0.3 mm 2 mps 583 mmHg 72%
    18:00 +15°C° 0.3 mm 1 mps 582 mmHg 80%
    19:00 +13°C° 0.3 mm 1 mps 582 mmHg 87%
    20:00 +13°C° 0.4 mm 1 mps 582 mmHg 88%
    21:00 +13°C° 0.4 mm 1 mps 583 mmHg 88%
    22:00 +12°C° 0.4 mm 1 mps 583 mmHg 88%
    23:00 +12°C° 0.1 mm 1 mps 583 mmHg 87%

    27 February, Tuesday

    Time Temperature Precipitation Wind Pressure Humidity
    00:00 +12°C° 0.1 mm 1 mps 582 mmHg 86%
    01:00 +12°C° 0.1 mm 1 mps 582 mmHg 84%
    02:00 +11°C° 0 mm 1 mps 582 mmHg 84%
    03:00 +11°C° 0 mm 1 mps 581 mmHg 83%
    04:00 +11°C° 0 mm 1 mps 581 mmHg 83%
    05:00 +11°C° 0 mm 1 mps 581 mmHg 82%
    06:00 +11°C° 0 mm 1 mps 582 mmHg 81%
    07:00 +11°C° 0 mm 1 mps 582 mmHg 81%
    08:00 +14°C° 0 mm 1 mps 583 mmHg 70%
    09:00 +16°C° 0 mm 1 mps 585 mmHg 59%
    10:00 +20°C° 0 mm 1 mps 586 mmHg 48%
    11:00 +19°C° 0 mm 2 mps 586 mmHg 47%
    12:00 +20°C° 0 mm 2 mps 585 mmHg 46%
    13:00 +21°C° 0 mm 3 mps 585 mmHg 45%
    14:00 +20°C° 0.2 mm 3 mps 584 mmHg 50%
    15:00 +19°C° 0.2 mm 3 mps 583 mmHg 55%
    16:00 +18°C° 0.2 mm 3 mps 582 mmHg 61%
    17:00 +17°C° 0.5 mm 2 mps 582 mmHg 70%
    18:00 +15°C° 0.5 mm 1 mps 582 mmHg 80%
    19:00 +13°C° 0.5 mm 1 mps 581 mmHg 89%
    20:00 +13°C° 0.5 mm 1 mps 582 mmHg 89%
    21:00 +13°C° 0.5 mm 1 mps 582 mmHg 90%
    22:00 +12°C° 0.5 mm 1 mps 582 mmHg 90%
    23:00 +12°C° 0.2 mm 1 mps 582 mmHg 88%

    28 February, Wednesday

    Time Temperature Precipitation Wind Pressure Humidity
    00:00 +12°C° 0.2 mm 1 mps 582 mmHg 86%
    01:00 +12°C° 0.2 mm 1 mps 582 mmHg 83%
    02:00 +12°C° 0.1 mm 1 mps 581 mmHg 83%
    03:00 +11°C° 0.1 mm 1 mps 581 mmHg 83%
    04:00 +11°C° 0.1 mm 1 mps 581 mmHg 83%
    05:00 +11°C° 0 mm 1 mps 581 mmHg 83%
    06:00 +11°C° 0 mm 1 mps 581 mmHg 82%
    07:00 +11°C° 0 mm 1 mps 582 mmHg 81%
    08:00 +14°C° 0 mm 1 mps 583 mmHg 71%
    09:00 +16°C° 0 mm 1 mps 584 mmHg 61%
    10:00 +20°C° 0 mm 1 mps 585 mmHg 51%
    11:00 +19°C° 0.1 mm 2 mps 585 mmHg 51%
    12:00 +20°C° 0.1 mm 2 mps 584 mmHg 50%
    13:00 +21°C° 0.1 mm 3 mps 584 mmHg 50%
    14:00 +20°C° 0.4 mm 2 mps 583 mmHg 55%
    15:00 +19°C° 0.4 mm 2 mps 583 mmHg 61%
    16:00 +18°C° 0.4 mm 2 mps 582 mmHg 66%
    17:00 +17°C° 0.7 mm 2 mps 582 mmHg 75%
    18:00 +15°C° 0.7 mm 1 mps 581 mmHg 83%
    19:00 +13°C° 0.7 mm 1 mps 581 mmHg 92%
    20:00 +13°C° 0.7 mm 1 mps 582 mmHg 92%
    21:00 +13°C° 0.7 mm 1 mps 582 mmHg 92%
    22:00 +12°C° 0.7 mm 0 mps 582 mmHg 93%
    23:00 +12°C° 0.4 mm 0 mps 582 mmHg 93%

    1 March, Thursday

    Time Temperature Precipitation Wind Pressure Humidity
    00:00 +13°C° 0.4 mm 1 mps 582 mmHg 93%
    01:00 +12°C° 0.4 mm 1 mps 581 mmHg 93%
    02:00 +12°C° 0.2 mm 1 mps 581 mmHg 92%
    03:00 +12°C° 0.2 mm 1 mps 581 mmHg 91%
    04:00 +12°C° 0.2 mm 1 mps 581 mmHg 89%
    05:00 +12°C° 0.1 mm 1 mps 581 mmHg 88%
    06:00 +12°C° 0.1 mm 1 mps 581 mmHg 86%
    07:00 +12°C° 0.1 mm 1 mps 582 mmHg 84%
    08:00 +14°C° 0.1 mm 1 mps 583 mmHg 76%
    09:00 +16°C° 0.1 mm 1 mps 584 mmHg 67%
    10:00 +19°C° 0.1 mm 1 mps 585 mmHg 59%
    11:00 +19°C° 0.2 mm 2 mps 585 mmHg 58%
    12:00 +20°C° 0.2 mm 2 mps 584 mmHg 58%
    13:00 +20°C° 0.2 mm 2 mps 584 mmHg 58%
    14:00 +19°C° 0.7 mm 2 mps 583 mmHg 64%
    15:00 +18°C° 0.7 mm 2 mps 582 mmHg 70%
    16:00 +17°C° 0.7 mm 2 mps 582 mmHg 76%
    17:00 +16°C° 1.3 mm 1 mps 582 mmHg 81%
    18:00 +15°C° 1.3 mm 1 mps 582 mmHg 86%
    19:00 +14°C° 1.3 mm 1 mps 582 mmHg 91%
    20:00 +14°C° 1.3 mm 1 mps 582 mmHg 92%
    21:00 +14°C° 1.3 mm 1 mps 582 mmHg 92%
    22:00 +13°C° 1.3 mm 1 mps 583 mmHg 92%
    23:00 +13°C° 0.7 mm 1 mps 583 mmHg 92%
    Show more